Temp
-3 -3 -3 -3 -3 -3 -3 -4 -4 -3 -3 -3 -3 -4 -3 -4 -3 -3 -3 -3 -3 -3 -3 -3 -3 -3 -3 -3 -3 -3 -3 -3 -3 -3 -3 -3 -3 -4 -4 -4 -4 -4 -5 -5 -5 -5 -5 -5 -5
-3 -4 -4 -3 -3 -2 -3 -3 -3 -4 -3 -3 -3 -3 -3 -3 -3 -3 -3 -3 -3 -3 -4 -3 -3 -3 -3 -4 -3 -3 -3 -3 -3 -3 -3 -3 -3 -3 -3 -4 -4 -4 -5 -5 -4 -5 -5 -5 -5
-3 -4 -4 -4 -4 -3 -3 -4 -3 -3 -3 -3 -3 -3 -3 -3 -3 -3 -3 -3 -4 -4 -4 -4 -4 -4 -4 -4 -4 -4 -3 -3 -3 -3 -3 -3 -3 -3 -3 -4 -4 -4 -4 -5 -5 -5 -5 -5 -5
-4 -4 -4 -4 -4 -4 -3 -3 -2 -3 -3 -3 -3 -3 -3 -3 -3 -3 -3 -3 -3 -4 -4 -4 -4 -4 -4 -4 -4 -4 -4 -3 -3 -3 -3 -3 -3 -3 -3 -4 -4 -4 -4 -4 -5 -5 -5 -5 -5
-5 -5 -4 -3 -4 -4 -3 -3 -2 -2 -3 -3 -2 -3 -3 -3 -3 -3 -3 -3 -3 -4 -4 -4 -4 -4 -4 -5 -4 -4 -4 -4 -3 -4 -3 -3 -3 -4 -4 -4 -4 -4 -4 -4 -5 -5 -5 -5 -5
-4 -5 -3 -4 -4 -4 -4 -3 -2 -3 -3 -3 -3 -3 -3 -3 -3 -3 -3 -4 -3 -4 -4 -4 -4 -4 -4 -4 -5 -4 -4 -4 -3 -4 -4 -4 -4 -4 -4 -4 -4 -4 -5 -5 -5 -5 -5 -5 -5
-4 -4 -4 -4 -4 -5 -3 -3 -3 -4 -4 -4 -4 -4 -3 -3 -4 -4 -4 -4 -4 -4 -4 -5 -5 -4 -5 -4 -4 -4 -5 -4 -4 -4 -4 -4 -4 -3 -4 -5 -4 -4 -4 -4 -5 -5 -5 -5 -5
-4 -4 -4 -4 -4 -4 -4 -3 -3 -4 -4 -3 -3 -4 -3 -4 -4 -4 -4 -4 -4 -4 -4 -5 -5 -4 -5 -4 -4 -4 -4 -4 -4 -3 -4 -4 -4 -4 -5 -4 -5 -4 -4 -4 -5 -4 -5 -5 -4
-5 -5 -4 -4 -5 -4 -4 -4 -3 -3 -3 -3 -3 -3 -3 -3 -4 -4 -4 -5 -4 -5 -5 -4 -5 -5 -5 -4 -4 -4 -4 -4 -4 -4 -3 -4 -4 -5 -5 -4 -5 -4 -4 -5 -5 -5 -5 -4 -5
-4 -3 -5 -5 -5 -5 -4 -4 -4 -3 -2 -3 -3 -4 -3 -4 -4 -4 -4 -5 -5 -5 -5 -5 -5 -5 -5 -5 -5 -5 -4 -4 -4 -4 -3 -4 -4 -5 -5 -5 -5 -4 -4 -5 -5 -5 -5 -4 -5
-4 -5 -6 -5 -4 -5 -5 -4 -3 -2 -2 -3 -3 -3 -2 -3 -3 -3 -4 -4 -4 -4 -4 -4 -4 -5 -5 -5 -5 -5 -5 -4 -4 -4 -4 -4 -4 -4 -5 -5 -4 -4 -5 -5 -6 -5 -5 -4 -5
-5 -5 -6 -5 -4 -5 -4 -2 -4 -3 -2 -3 -3 -3 -3 -3 -3 -3 -3 -3 -4 -4 -4 -4 -4 -4 -5 -5 -5 -4 -4 -4 -4 -4 -4 -4 -4 -4 -5 -5 -5 -4 -5 -5 -5 -5 -5 -4 -4
-7 -6 -6 -6 -5 -5 -3 -4 -4 -3 -2 -2 -3 -3 -3 -3 -3 -3 -3 -3 -4 -3 -4 -4 -4 -4 -4 -4 -4 -4 -4 -5 -5 -4 -4 -4 -5 -5 -4 -5 -5 -4 -5 -5 -5 -5 -5 -5 -4
-6 -4 -5 -6 -5 -4 -4 -4 -3 -3 -3 -3 -2 -3 -3 -3 -3 -3 -4 -4 -4 -4 -4 -4 -4 -4 -4 -4 -4 -4 -4 -5 -5 -4 -4 -4 -5 -5 -5 -5 -4 -4 -4 -4 -5 -5 -4 -4 -4
-5 -4 -6 -5 -4 -4 -5 -4 -3 -4 -3 -3 -3 -2 -3 -3 -3 -4 -4 -4 -4 -4 -4 -4 -4 -4 -4 -4 -4 -4 -4 -4 -5 -4 -5 -6 -5 -5 -5 -4 -5 -4 -4 -5 -5 -4 -5 -4 -4
-4 -5 -5 -5 -4 -4 -4 -3 -3 -3 -4 -3 -3 -3 -1 -2 -3 -3 -4 -4 -4 -4 -4 -5 -5 -5 -5 -4 -4 -4 -4 -4 -5 -5 -6 -6 -5 -5 -5 -5 -5 -5 -5 -5 -5 -5 -5 -4 -4
-4 -5 -4 -4 -4 -3 -4 -4 -3 -3 -3 -3 -3 -3 -3 -2 -2 -3 -4 -3 -3 -4 -4 -5 -5 -5 -5 -5 -5 -5 -4 -5 -5 -5 -5 -5 -5 -5 -5 -5 -5 -5 -4 -5 -5 -5 -4 -4 -3
-4 -5 -4 -3 -4 -4 -4 -4 -5 -3 -2 -2 -3 -3 -3 -4 -3 -3 -3 -4 -4 -4 -4 -4 -5 -5 -5 -5 -5 -4 -4 -5 -5 -5 -6 -5 -5 -5 -5 -4 -5 -5 -4 -5 -5 -5 -4 -4 -4
-4 -5 -6 -4 -4 -4 -5 -5 -5 -5 -4 -3 -2 -2 -3 -3 -4 -4 -2 -4 -4 -4 -5 -4 -4 -4 -5 -5 -5 -4 -4 -5 -5 -5 -5 -5 -5 -5 -5 -5 -5 -5 -5 -5 -5 -5 -5 -4 -4
-4 -4 -4 -5 -4 -6 -5 -5 -5 -6 -5 -4 -4 -2 -2 -2 -3 -4 -3 -2 -4 -4 -4 -5 -4 -4 -5 -5 -5 -4 -5 -5 -5 -5 -5 -5 -5 -5 -5 -5 -5 -5 -5 -5 -5 -5 -5 -4 -4
-6 -5 -5 -6 -5 -5 -4 -5 -5 -5 -5 -5 -5 -2 -2 -2 -4 -4 -3 -4 -4 -4 -4 -4 -4 -5 -5 -5 -5 -5 -5 -5 -5 -5 -5 -5 -5 -5 -5 -5 -5 -5 -5 -5 -5 -5 -5 -5 -4
-5 -5 -5 -6 -6 -5 -5 -4 -5 -6 -5 -6 -5 -4 -2 -3 -4 -4 -4 -4 -4 -4 -4 -3 -4 -4 -5 -5 -5 -5 -5 -5 -5 -5 -5 -5 -5 -5 -5 -5 -6 -5 -5 -5 -5 -6 -5 -5 -5
-6 -5 -5 -6 -5 -5 -5 -4 -6 -5 -5 -6 -5 -5 -4 -4 -4 -4 -4 -4 -4 -4 -4 -4 -4 -4 -5 -5 -5 -5 -5 -5 -5 -5 -5 -5 -5 -5 -5 -5 -6 -6 -5 -5 -5 -5 -5 -5 -5
-7 -6 -6 -6 -6 -5 -5 -6 -5 -5 -6 -6 -6 -5 -5 -5 -4 -4 -4 -4 -4 -4 -4 -4 -4 -4 -4 -5 -5 -5 -5 -5 -5 -5 -5 -5 -5 -5 -5 -5 -5 -6 -6 -6 -6 -6 -5 -5 -5
-6 -6 -6 -6 -6 -5 -6 -5 -6 -6 -6 -6 -5 -7 -6 -6 -5 -4 -4 -4 -4 -4 -4 -4 -4 -4 -5 -4 -5 -5 -6 -6 -5 -5 -5 -5 -5 -5 -5 -5 -5 -6 -6 -5 -6 -6 -5 -5 -5
-6 -8 -6 -7 -6 -7 -6 -6 -6 -6 -5 -6 -6 -6 -6 -6 -5 -4 -4 -4 -4 -4 -4 -4 -4 -4 -5 -5 -5 -5 -6 -6 -6 -5 -5 -5 -6 -6 -6 -5 -5 -5 -6 -6 -6 -6 -5 -5 -5
-6 -7 -7 -7 -7 -6 -6 -6 -5 -6 -5 -7 -7 -6 -6 -7 -6 -5 -5 -5 -4 -5 -5 -5 -4 -5 -5 -5 -5 -5 -6 -6 -6 -5 -5 -5 -6 -6 -6 -6 -6 -6 -6 -6 -6 -6 -6 -6 -5
-6 -7 -7 -6 -6 -6 -6 -6 -6 -6 -7 -6 -7 -6 -5 -7 -7 -6 -5 -5 -5 -4 -5 -5 -5 -5 -5 -5 -5 -5 -6 -6 -6 -6 -6 -6 -6 -6 -6 -6 -6 -6 -6 -6 -6 -5 -5 -6 -5
-7 -6 -6 -6 -6 -6 -7 -7 -7 -7 -8 -7 -7 -8 -7 -5 -6 -7 -6 -5 -5 -5 -5 -5 -4 -5 -5 -5 -5 -6 -6 -6 -6 -6 -6 -6 -6 -6 -6 -6 -6 -6 -6 -6 -6 -6 -6 -6 -6
-8 -7 -7 -7 -7 -6 -7 -7 -7 -7 -7 -7 -7 -7 -7 -8 -7 -7 -7 -6 -6 -5 -5 -5 -5 -5 -5 -5 -6 -6 -6 -6 -6 -6 -6 -6 -6 -6 -6 -5 -5 -6 -6 -6 -6 -6 -7 -5 -6
Height
5921 5920 5922 5923 5923 5921 5918 5923 5919 5925 5928 5929 5929 5931 5933 5932 5933 5936 5934 5935 5936 5936 5937 5937 5938 5938 5939 5939 5938 5938 5939 5938 5938 5938 5937 5938 5938 5937 5937 5937 5936 5934 5934 5934 5933 5932 5929 5927 5924
5923 5922 5924 5923 5925 5923 5921 5917 5923 5930 5932 5932 5932 5933 5934 5935 5937 5938 5937 5938 5938 5938 5939 5940 5940 5940 5940 5940 5940 5941 5941 5940 5939 5940 5940 5940 5939 5940 5940 5940 5937 5936 5937 5937 5936 5934 5930 5927 5925
5925 5925 5925 5924 5925 5926 5926 5920 5926 5930 5932 5933 5936 5937 5938 5939 5940 5939 5939 5939 5939 5940 5942 5942 5942 5942 5942 5942 5942 5943 5942 5943 5942 5942 5943 5942 5942 5943 5942 5941 5940 5940 5940 5939 5937 5935 5931 5929 5927
5926 5930 5929 5931 5931 5929 5929 5930 5930 5933 5934 5937 5938 5940 5940 5941 5941 5942 5942 5941 5941 5941 5943 5944 5944 5944 5944 5944 5944 5944 5945 5944 5945 5944 5944 5945 5944 5944 5943 5942 5942 5942 5942 5940 5938 5935 5932 5930 5929
5918 5912 5923 5932 5933 5934 5931 5932 5932 5935 5937 5938 5939 5941 5942 5942 5943 5942 5944 5943 5943 5943 5945 5945 5945 5946 5947 5946 5946 5947 5947 5947 5947 5947 5946 5946 5946 5945 5944 5944 5944 5944 5942 5940 5938 5936 5935 5935 5931
5924 5926 5928 5932 5936 5937 5934 5934 5936 5938 5939 5940 5941 5942 5943 5944 5945 5945 5945 5945 5945 5946 5946 5946 5946 5947 5948 5948 5948 5948 5948 5948 5949 5949 5949 5948 5947 5946 5947 5946 5945 5944 5943 5942 5940 5936 5938 5936 5934
5933 5932 5933 5936 5937 5939 5937 5936 5938 5940 5940 5942 5942 5942 5944 5945 5946 5946 5946 5947 5947 5947 5947 5947 5948 5949 5948 5949 5949 5949 5949 5949 5950 5951 5951 5950 5949 5949 5949 5947 5946 5945 5944 5943 5940 5939 5938 5936 5934
5934 5936 5937 5938 5937 5938 5939 5936 5939 5940 5942 5943 5943 5942 5945 5945 5946 5948 5947 5948 5949 5949 5949 5949 5949 5949 5949 5950 5949 5949 5950 5951 5951 5951 5952 5952 5951 5950 5949 5947 5946 5946 5945 5944 5942 5941 5941 5938 5936
5934 5939 5937 5935 5937 5938 5938 5937 5937 5941 5944 5946 5944 5943 5946 5946 5946 5948 5947 5949 5950 5950 5950 5950 5950 5949 5949 5950 5951 5951 5951 5952 5952 5952 5952 5953 5953 5950 5951 5950 5947 5945 5946 5948 5944 5942 5943 5942 5939
5933 5936 5936 5936 5936 5937 5937 5939 5940 5942 5944 5945 5945 5944 5946 5947 5947 5948 5949 5950 5950 5951 5950 5951 5950 5950 5950 5950 5950 5951 5951 5951 5953 5953 5951 5953 5953 5951 5951 5951 5948 5946 5947 5947 5945 5943 5942 5947 5943
5929 5932 5939 5939 5937 5940 5940 5941 5942 5944 5945 5946 5948 5946 5946 5948 5949 5947 5948 5948 5949 5950 5950 5950 5950 5950 5950 5950 5950 5951 5950 5951 5951 5953 5953 5953 5954 5953 5951 5952 5947 5948 5949 5947 5945 5945 5945 5946 5945
5930 5938 5942 5941 5943 5943 5943 5944 5944 5944 5946 5948 5949 5948 5947 5947 5950 5949 5949 5949 5949 5950 5949 5950 5951 5951 5950 5951 5950 5950 5950 5950 5950 5952 5952 5954 5954 5953 5953 5953 5950 5949 5950 5950 5949 5947 5946 5946 5946
5939 5946 5946 5946 5946 5946 5945 5945 5946 5945 5945 5946 5949 5948 5948 5948 5948 5949 5950 5951 5950 5950 5949 5950 5950 5951 5951 5951 5951 5950 5949 5947 5947 5948 5951 5954 5954 5954 5955 5956 5953 5950 5952 5951 5950 5949 5948 5950 5948
5940 5935 5946 5947 5947 5947 5947 5946 5947 5948 5946 5947 5950 5950 5951 5950 5947 5947 5948 5948 5949 5949 5949 5949 5950 5951 5951 5951 5951 5950 5949 5946 5945 5947 5950 5953 5954 5954 5954 5955 5956 5953 5952 5952 5952 5951 5951 5952 5949
5943 5946 5945 5946 5947 5946 5947 5948 5949 5948 5949 5947 5946 5950 5950 5949 5949 5947 5947 5947 5948 5947 5948 5947 5949 5949 5950 5949 5950 5949 5948 5947 5945 5945 5948 5950 5953 5954 5954 5954 5954 5954 5953 5952 5953 5953 5954 5953 5951
5946 5947 5946 5948 5948 5946 5947 5949 5950 5950 5949 5947 5949 5947 5951 5952 5950 5948 5947 5947 5947 5945 5945 5947 5946 5947 5948 5949 5948 5948 5948 5947 5946 5945 5944 5949 5951 5953 5954 5954 5954 5956 5955 5954 5953 5955 5955 5954 5954
5945 5944 5949 5952 5948 5947 5947 5948 5949 5949 5949 5948 5950 5950 5947 5949 5952 5951 5948 5946 5945 5944 5943 5943 5943 5944 5945 5946 5947 5946 5947 5946 5946 5946 5947 5948 5950 5951 5951 5953 5954 5956 5955 5956 5955 5956 5955 5954 5953
5948 5947 5949 5946 5948 5948 5947 5947 5946 5946 5948 5949 5950 5951 5951 5948 5948 5949 5950 5947 5944 5942 5941 5941 5940 5940 5942 5943 5944 5944 5944 5945 5944 5945 5946 5947 5947 5949 5949 5951 5953 5953 5955 5956 5956 5957 5956 5955 5956
5948 5948 5947 5948 5946 5947 5948 5949 5948 5946 5946 5946 5947 5950 5952 5953 5949 5945 5946 5947 5943 5942 5941 5940 5939 5940 5941 5940 5941 5942 5942 5943 5943 5943 5943 5944 5945 5947 5948 5949 5951 5953 5954 5956 5956 5957 5957 5955 5956
5948 5949 5948 5950 5947 5949 5949 5950 5948 5948 5947 5946 5944 5944 5948 5949 5949 5946 5944 5944 5941 5940 5939 5939 5938 5937 5938 5939 5939 5940 5940 5940 5941 5941 5940 5941 5942 5943 5945 5946 5948 5950 5953 5955 5955 5956 5957 5956 5955
5945 5945 5947 5948 5948 5948 5948 5949 5950 5950 5950 5947 5946 5942 5942 5948 5948 5945 5942 5943 5943 5940 5936 5936 5935 5937 5937 5938 5937 5938 5938 5938 5939 5939 5939 5939 5940 5941 5942 5943 5946 5948 5950 5953 5955 5956 5956 5956 5956
5943 5942 5946 5946 5946 5947 5948 5948 5947 5946 5947 5947 5949 5944 5940 5943 5946 5945 5942 5939 5940 5941 5937 5936 5934 5934 5934 5934 5935 5935 5936 5937 5937 5937 5937 5937 5938 5940 5940 5942 5944 5946 5948 5950 5953 5954 5955 5955 5955
5941 5939 5942 5945 5945 5944 5945 5946 5945 5946 5946 5946 5948 5949 5943 5942 5944 5944 5941 5940 5937 5939 5938 5936 5934 5933 5932 5932 5933 5933 5934 5934 5935 5935 5935 5935 5935 5937 5938 5940 5943 5943 5946 5948 5950 5952 5954 5954 5954
5938 5937 5942 5941 5941 5942 5943 5943 5943 5943 5945 5946 5946 5947 5945 5941 5945 5944 5941 5940 5940 5936 5934 5933 5933 5930 5930 5930 5931 5932 5932 5932 5932 5933 5933 5932 5933 5934 5936 5937 5939 5941 5942 5944 5947 5949 5951 5952 5952
5934 5933 5936 5938 5938 5937 5938 5941 5941 5940 5941 5941 5938 5938 5941 5940 5941 5941 5940 5939 5937 5936 5934 5930 5929 5928 5928 5929 5929 5929 5929 5930 5930 5930 5930 5930 5930 5931 5932 5933 5935 5937 5938 5941 5943 5945 5948 5950 5951
5930 5933 5932 5934 5935 5935 5934 5935 5937 5935 5936 5936 5937 5935 5938 5937 5934 5935 5938 5935 5934 5933 5932 5929 5926 5926 5926 5927 5927 5926 5926 5927 5927 5927 5928 5928 5928 5929 5929 5930 5931 5933 5934 5937 5939 5941 5944 5946 5948
5928 5927 5930 5929 5931 5929 5931 5929 5931 5930 5937 5932 5935 5936 5928 5935 5933 5932 5932 5933 5932 5930 5930 5928 5926 5926 5925 5925 5925 5923 5923 5924 5924 5924 5924 5925 5925 5926 5926 5927 5928 5928 5931 5933 5934 5936 5939 5942 5945
5919 5924 5924 5922 5927 5927 5925 5923 5926 5919 5926 5929 5928 5932 5930 5928 5931 5931 5931 5931 5929 5929 5928 5929 5927 5925 5925 5924 5922 5921 5921 5921 5921 5921 5921 5922 5923 5923 5922 5923 5924 5925 5926 5928 5929 5930 5933 5938 5941
5915 5918 5919 5921 5923 5922 5926 5925 5918 5919 5920 5930 5930 5929 5927 5928 5931 5929 5928 5928 5927 5927 5927 5928 5926 5924 5923 5922 5920 5919 5918 5918 5918 5917 5917 5918 5918 5919 5919 5919 5920 5921 5921 5924 5925 5926 5930 5935 5937
5913 5915 5917 5917 5921 5921 5923 5921 5921 5920 5916 5918 5919 5925 5925 5927 5928 5928 5926 5928 5926 5925 5924 5924 5924 5923 5921 5920 5919 5915 5915 5915 5914 5913 5913 5913 5914 5914 5915 5915 5915 5916 5918 5919 5922 5924 5927 5930 5933
Wind_Speed
13 11 9 9 9 21 18 18 15 14 19 17 15 18 15 18 19 17 16 14 10 11 10 10 10 11 9 10 10 12 12 12 11 12 12 13 13 12 13 13 14 13 13 12 12 12 11 15 16
12 10 6 6 4 13 11 18 19 14 14 13 14 18 17 19 16 16 16 14 12 11 10 10 9 9 8 8 9 10 10 10 12 11 11 12 11 12 11 12 11 12 12 12 13 16 17 18 21
11 9 12 7 6 10 7 13 13 15 13 13 11 12 15 14 14 14 13 14 10 10 8 9 10 9 8 7 8 9 8 7 10 11 10 10 10 12 11 10 11 13 13 14 16 18 18 21 21
7 7 11 3 6 9 7 9 8 11 11 11 9 11 10 11 12 10 12 13 14 6 7 8 9 9 7 7 5 7 6 6 6 10 9 8 10 11 10 11 11 13 15 16 17 16 20 20 23
10 20 17 6 6 6 5 6 5 8 9 7 6 6 6 7 8 8 11 11 13 10 7 6 8 7 7 5 5 4 5 5 4 5 8 9 9 9 9 10 11 14 15 16 16 19 23 24 20
5 10 7 9 7 4 2 0 5 6 4 3 4 4 5 8 9 8 8 9 9 10 4 7 7 7 5 3 4 4 4 4 3 2 3 6 6 8 9 10 11 13 14 15 18 20 23 22 20
1 6 6 3 9 6 2 4 6 5 3 4 4 4 5 6 4 7 9 7 8 11 8 7 8 2 2 3 2 2 2 3 4 2 2 2 4 7 10 9 9 12 12 14 16 19 20 18 17
9 3 6 7 9 3 5 4 2 2 2 4 5 5 6 4 5 5 5 5 5 6 6 4 7 4 4 2 1 3 3 2 4 3 1 2 3 6 4 6 8 9 11 14 14 17 18 23 28
11 15 4 7 8 3 4 4 5 4 2 4 4 6 6 5 6 4 4 4 4 2 2 2 3 5 6 5 4 2 2 2 2 3 1 2 1 2 3 4 9 9 11 16 16 17 11 13 17
13 9 19 10 5 9 4 1 6 4 7 7 4 3 4 4 4 4 3 2 2 3 3 2 3 3 3 1 2 6 4 3 4 3 4 1 2 4 2 5 7 7 11 13 16 15 15 18 19
10 22 13 14 13 7 4 6 4 6 11 9 9 6 8 7 6 7 5 3 3 3 3 5 4 4 3 1 1 5 4 7 4 5 5 4 1 3 4 6 7 7 11 13 14 12 12 14 17
25 15 2 8 6 6 7 13 11 9 10 9 9 8 10 11 9 8 6 6 4 4 4 5 4 4 2 0 1 3 5 12 15 12 10 6 4 3 5 2 2 6 10 10 11 12 12 12 14
17 9 6 5 4 1 5 7 7 7 9 11 11 10 10 11 11 8 7 6 6 6 5 4 4 3 3 4 5 5 6 6 6 15 13 8 5 6 5 2 2 3 9 9 13 10 8 10 12
16 8 2 1 6 5 3 8 8 8 11 11 11 10 8 10 13 11 9 8 6 7 6 5 3 2 2 3 5 8 7 3 0 12 14 10 8 7 6 3 2 2 6 8 9 10 10 11 13
10 4 11 11 6 7 6 7 9 8 8 13 17 13 10 13 14 12 9 8 6 8 4 6 5 6 4 6 6 7 8 4 1 1 14 16 10 7 7 4 1 2 5 6 8 9 10 10 13
12 5 3 2 5 8 6 8 7 7 8 12 13 14 11 12 15 17 9 6 5 8 9 6 8 8 9 8 10 9 7 6 3 0 10 13 9 7 6 7 2 1 3 4 6 6 10 8 10
6 9 5 5 10 8 8 6 6 7 6 7 9 8 13 16 14 14 15 13 11 9 10 12 9 8 9 11 10 11 9 6 5 5 10 11 10 11 11 10 5 4 3 3 5 7 9 7 6
3 3 3 2 10 7 8 10 9 11 5 7 7 4 6 13 15 13 10 10 14 12 10 10 8 6 8 10 11 9 8 8 8 8 11 14 12 10 15 12 9 7 4 4 4 5 7 8 6
4 1 6 15 11 8 7 9 11 18 16 17 14 7 3 6 11 16 14 9 8 8 10 9 6 5 5 5 5 6 6 7 8 9 13 14 14 12 14 16 14 10 6 5 3 3 6 8 4
6 5 7 6 3 9 6 5 9 12 18 17 21 16 8 7 5 11 15 16 10 12 8 11 5 5 6 6 5 5 5 5 4 7 10 13 13 13 13 19 17 12 9 7 6 4 3 7 5
6 10 6 5 12 8 11 5 6 9 15 23 26 28 23 13 12 11 12 13 10 12 13 6 8 6 7 7 6 5 6 6 6 6 8 11 15 12 12 16 17 15 13 10 6 5 5 5 8
13 16 11 14 13 14 14 4 6 6 12 17 21 26 12 17 15 14 11 13 13 11 11 11 8 11 10 10 8 8 7 6 6 8 9 9 12 12 15 14 20 18 15 12 10 6 6 6 5
19 19 12 13 19 16 9 5 3 10 16 15 19 12 18 15 15 14 12 11 13 13 13 14 12 10 12 10 10 9 7 7 8 9 9 10 10 11 13 17 20 20 19 16 12 10 7 9 9
23 23 14 15 13 10 9 7 7 9 8 12 15 21 19 25 17 14 11 9 9 12 13 12 11 10 11 11 12 10 8 8 11 10 9 10 11 10 12 14 17 22 21 19 17 14 12 10 10
21 17 7 10 10 18 17 11 16 14 12 13 8 20 12 18 18 15 10 10 7 8 12 16 15 11 13 12 12 13 12 11 10 11 9 11 11 11 13 14 17 20 22 22 16 19 19 14 14
25 13 18 17 13 25 20 21 10 23 24 14 7 15 4 9 15 16 7 7 8 7 9 13 16 12 11 14 14 15 16 13 10 11 10 8 10 11 14 16 18 20 24 24 24 19 23 18 15
21 27 22 27 19 25 20 24 26 34 15 15 14 15 5 13 17 14 15 11 9 9 10 10 12 11 10 14 16 13 15 14 12 11 11 11 9 10 14 15 17 17 18 22 24 25 25 22 17
20 21 27 30 22 26 26 18 25 3 14 17 22 14 11 5 20 17 19 15 13 12 11 9 8 8 9 11 12 11 11 12 14 12 11 12 12 11 13 16 16 16 18 16 17 20 29 26 20
23 18 29 26 23 24 26 23 25 21 9 13 11 10 5 4 15 24 23 17 13 13 12 10 9 8 9 10 14 12 12 14 14 15 13 13 14 13 14 16 17 18 21 19 16 14 27 27 24
26 22 18 18 20 15 19 22 18 20 18 16 13 12 1 20 23 23 20 16 14 13 14 13 12 15 15 14 12 15 16 19 17 15 16 15 17 16 16 18 20 21 20 21 20 16 15 30 28
Wind_Direction
124 126 105 103 86 87 102 84 83 95 87 74 71 63 87 74 84 85 89 86 91 89 84 92 98 101 105 116 120 120 119 115 105 101 101 96 95 95 95 93 84 80 77 66 54 49 33 19 10
133 133 109 181 201 104 120 62 84 85 88 83 73 68 82 69 74 70 71 71 71 77 90 92 94 101 110 119 122 121 117 118 107 101 99 95 100 90 85 81 83 78 66 54 42 32 22 12 7
136 151 155 65 99 92 88 74 82 82 87 79 80 78 80 78 75 71 60 60 67 65 68 88 90 95 111 121 123 119 115 112 114 106 98 101 98 85 82 79 70 63 50 39 37 31 18 12 17
149 159 145 179 97 87 100 89 90 88 84 82 78 69 71 81 80 67 58 50 52 97 86 91 90 91 106 128 130 118 107 113 118 117 101 94 91 89 84 76 69 58 43 33 32 26 19 22 30
240 154 134 107 106 90 82 90 90 80 84 76 64 71 76 71 65 52 59 45 50 70 83 80 87 82 90 119 127 103 89 110 117 118 108 93 86 85 80 73 62 50 38 33 28 22 22 31 37
245 73 59 103 66 109 131 151 72 80 76 87 49 36 47 56 32 44 49 48 43 75 117 116 96 66 57 76 120 125 104 115 112 78 93 98 95 89 72 63 57 44 36 34 28 22 31 40 47
58 289 140 121 102 108 19 341 65 115 66 48 33 20 11 48 52 39 28 36 39 63 72 167 173 116 91 95 123 153 130 134 115 49 64 70 83 73 70 63 45 34 35 37 35 28 45 52 49
49 126 98 141 94 94 61 355 32 38 80 341 17 356 13 23 38 66 17 37 56 55 61 66 180 234 27 59 168 175 192 188 141 118 335 332 63 78 89 88 52 36 41 42 26 33 55 62 70
120 98 136 100 77 50 78 28 348 30 94 92 356 334 6 7 10 44 35 50 48 52 26 36 190 328 240 293 277 226 196 239 246 163 144 21 12 113 90 45 53 41 42 46 26 38 40 66 64
91 88 62 51 75 30 53 36 351 5 31 57 31 1 7 31 13 22 54 19 16 336 334 261 335 7 52 259 245 219 232 225 277 258 165 192 351 332 67 68 67 50 54 51 34 46 48 81 73
94 72 55 74 90 61 39 91 54 67 78 69 62 19 17 32 26 351 352 5 354 9 353 13 5 29 33 357 148 238 244 261 217 262 244 207 281 314 293 79 96 61 54 52 33 55 60 70 72
73 57 200 61 61 66 63 91 52 31 59 63 50 29 16 1 21 356 347 325 344 333 345 349 353 16 37 24 345 325 275 257 249 265 244 237 266 273 285 124 98 81 74 59 54 39 63 68 71
93 89 68 92 153 134 56 65 47 26 26 45 50 29 20 359 349 339 322 329 338 329 344 347 358 32 49 63 35 15 354 315 267 208 232 227 232 256 276 331 82 90 84 71 80 52 87 89 83
125 108 67 80 42 49 40 39 71 50 37 34 46 30 17 8 351 339 323 309 314 312 323 320 340 1 350 354 352 354 11 43 248 229 227 222 227 246 246 231 244 96 90 83 74 100 104 107 85
81 94 114 124 187 112 64 53 77 60 50 40 19 42 35 10 4 341 330 328 317 295 305 294 288 288 294 308 312 319 333 349 305 266 210 207 221 236 252 266 247 130 83 73 75 108 103 92 96
53 63 62 72 105 87 73 24 58 68 34 36 25 17 71 40 28 15 1 322 323 310 330 309 287 268 277 281 295 297 296 320 301 168 159 188 222 230 246 264 219 179 111 93 88 112 104 93 93
84 73 39 19 25 64 73 25 21 26 57 45 22 26 359 2 9 25 15 349 317 310 320 330 315 270 270 275 278 284 280 270 261 236 168 210 230 223 226 234 231 221 155 131 94 125 125 117 85
36 12 33 326 57 38 34 354 11 344 15 42 22 5 357 346 355 11 22 345 334 314 313 329 324 319 278 272 281 273 269 261 259 244 222 222 236 220 224 219 215 210 194 151 102 119 127 129 138
277 127 352 15 7 7 4 349 331 344 346 342 337 335 14 43 3 347 358 354 328 339 309 323 292 298 289 269 262 260 250 241 257 248 243 234 240 218 237 233 219 207 194 186 158 120 141 119 146
282 286 304 332 41 287 299 313 338 346 339 326 328 326 1 19 11 351 338 347 326 331 334 310 294 282 295 275 235 238 255 234 235 256 255 247 247 235 242 229 210 214 200 207 182 185 173 163 157
279 259 313 301 288 335 292 317 322 331 335 336 332 338 337 29 18 9 353 357 348 329 326 309 305 265 275 267 249 246 244 245 242 237 254 256 245 240 235 223 207 213 209 211 205 206 188 180 176
262 254 274 268 292 280 297 283 277 316 305 305 329 321 318 352 7 7 360 351 347 351 340 323 297 285 277 270 261 257 260 246 259 267 262 257 249 241 230 217 214 210 215 216 221 213 221 200 211
260 274 250 272 287 289 265 257 209 268 279 313 327 284 320 330 340 354 358 346 330 320 325 317 306 287 282 274 260 256 255 247 244 257 260 264 251 242 242 238 226 219 216 212 220 228 222 213 222
262 280 259 276 277 311 264 271 268 262 305 294 305 314 292 303 307 316 332 338 330 328 320 320 310 290 276 268 264 256 256 259 260 262 263 256 253 249 248 241 235 225 226 225 226 231 234 224 215
262 275 275 301 295 288 280 268 281 275 279 269 318 322 339 288 293 296 296 302 313 330 336 322 316 301 281 275 258 257 258 256 259 261 259 260 251 245 243 243 240 234 235 236 243 238 230 225 218
247 249 270 277 243 275 285 296 277 270 261 273 273 260 12 324 289 283 303 309 313 316 334 333 319 314 284 274 270 266 262 253 258 254 254 248 264 255 247 246 248 243 239 240 248 241 226 218 221
266 228 229 246 241 258 286 290 282 278 247 239 245 254 305 335 314 312 331 344 336 329 336 337 321 319 293 270 275 273 265 267 261 252 251 251 250 260 260 251 251 250 237 244 248 239 229 213 213
272 239 218 235 239 247 266 298 294 64 189 234 245 273 288 322 308 314 325 335 332 328 331 330 317 321 307 298 297 286 269 263 263 256 249 246 246 243 256 259 251 251 244 252 249 253 206 210 213
272 248 233 240 251 247 254 282 292 333 340 276 259 256 229 248 308 317 317 321 320 317 313 306 311 318 308 300 300 291 283 273 265 269 264 260 253 243 245 253 248 246 254 245 246 242 207 216 217
259 280 245 251 241 251 247 270 289 277 233 198 196 193 213 282 310 312 312 313 320 316 303 296 289 290 295 283 290 300 296 277 267 263 265 262 263 261 257 250 250 243 240 243 238 236 227 222 220